Khon Kaen, Thailand

2:43 AM ICT on August 29, 2016 (GMT +0700)
Khon Kaen

Weather History for VTUK - February, 2013

Change the Weather History Date:

Tuesday, February 19, 2013

  Actual Average Record
Temperature  
Mean Temperature 86 °F -  
Max Temperature 98 °F 94 °F - ()
Min Temperature 74 °F 70 °F - ()
Cooling Degree Days 21    
Growing Degree Days 36 (Base 50)    
Moisture  
Dew Point 69 °F    
Average Humidity 54    
Maximum Humidity 78    
Minimum Humidity 28    
Precipitation  
Precipitation 0.00 in 0.04 in - ()
Sea Level Pressure  
Sea Level Pressure 29.77 in    
Wind  
Wind Speed 2 mph ()    
Max Wind Speed 8 mph    
Max Gust Speed -    
Visibility 5.0 miles    
Events      
T = Trace of Precipitation, MM = Missing Value Source: Averaged Metar Reports

Daily Weather History Graph

Daily Weather History Graph

Search for Another Location

Airport or City:

Trip Planner

Search our weather history database for the weather conditions in past years. The results will help you decide how hot, cold, wet, or windy it might be!

Date:

Astronomy

Feb. 19, 2013 Rise Set
Actual Time 6:32 AM ICT 6:12 PM ICT
Civil Twilight 6:10 AM ICT 6:34 PM ICT
Nautical Twilight 5:45 AM ICT 7:00 PM ICT
Astronomical Twilight 5:20 AM ICT 7:25 PM ICT
Moon 12:45 PM ICT (2/19) 1:12 AM ICT (2/19)
Length of Visible Light 12h 24m
Length of Day
11h 40m
Waxing Gibbous, 63% of the Moon is Illuminated
Feb 19
Waxing Gibbous
Feb 26
Full
Mar 5
Last Quarter
Mar 12
New
Mar 20
First Quarter

Hourly Weather History & Observations

Time (ICT) Temp. Heat Index Dew Point Humidity Pressure Visibility Wind Dir Wind Speed Gust Speed Precip Events Conditions
1:00 AM 80 °F - 66 °F 54% 29.77 in 4 mi SSW 1.2 mph - -   Haze
5:00 AM 75.2 °F - 68.0 °F 78% 29.77 in 4.3 mi West 3.5 mph - N/A   Unknown
6:00 AM 75.2 °F - 68.0 °F 78% 29.80 in 4.3 mi West 2.3 mph - N/A   Unknown
7:00 AM 75 °F - 64 °F 61% 29.81 in 2 mi Calm Calm - -   Mist
7:00 AM 75.2 °F - 68.0 °F 78% 29.83 in 2.5 mi Calm Calm - N/A   Mist
8:00 AM 78.8 °F - 71.6 °F 78% 29.83 in 3.1 mi North 3.5 mph - N/A   Mist
9:00 AM 84.2 °F 89.6 °F 71.6 °F 66% 29.86 in 3.7 mi WNW 4.6 mph - N/A   Unknown
10:00 AM 87.8 °F 93.8 °F 71.6 °F 58% 29.86 in 5.6 mi WNW 4.6 mph - N/A   Unknown
11:00 AM 91.4 °F 98.4 °F 71.6 °F 52% 29.83 in 5.6 mi Variable 3.5 mph - N/A   Unknown
12:00 PM 93.2 °F 100.5 °F 71.6 °F 49% 29.80 in 5.6 mi Variable 4.6 mph - N/A   Unknown
1:00 PM 95 °F - 65 °F 28% 29.75 in 6 mi NE 8.1 mph - -   Haze
1:00 PM 93.2 °F 98.8 °F 69.8 °F 46% 29.77 in 5.6 mi Variable 4.6 mph - N/A   Partly Cloudy
2:00 PM 95.0 °F 103.2 °F 71.6 °F 47% 29.77 in 5.6 mi SSW 4.6 mph - N/A   Partly Cloudy
3:00 PM 98.6 °F 104.1 °F 68.0 °F 37% 29.71 in 5.6 mi Variable 2.3 mph - N/A   Scattered Clouds
4:00 PM 96.8 °F 101.8 °F 68.0 °F 39% 29.71 in 6.2 mi Variable 2.3 mph - N/A   Scattered Clouds
5:00 PM 96.8 °F 103.1 °F 69.8 °F 41% 29.68 in 6.2 mi Calm Calm - N/A   Partly Cloudy
6:00 PM 93.2 °F 97.7 °F 68.0 °F 44% 29.71 in 6.2 mi East 1.2 mph - N/A   Partly Cloudy
7:00 PM 91 °F - 69 °F 39% 29.69 in 6 mi Calm Calm - -   Clear
7:00 PM 91.4 °F 96.8 °F 69.8 °F 49% 29.71 in 5.6 mi East 2.3 mph - N/A   Unknown
8:00 PM 87.8 °F 92.6 °F 69.8 °F 55% 29.74 in 5.6 mi NE 2.3 mph - N/A   Unknown